Lapse_Rate
4.8 5.2 5.3 4.3 4.5 5.1 5.1 6.3 6.2 5.5 4.5 5.5 6.3 6.4 6.8 6.2 5.9 5.9 6.1 7.0 6.8 6.0 6.6 5.8 6.0 6.3 6.2 7.7 7.6 6.3 5.7 6.1 5.7 7.2 7.6 7.5 6.8 7.0 7.4 6.9 6.5 7.0 7.1
6.2 5.7 4.7 4.2 4.3 5.0 5.1 5.0 4.9 6.3 6.5 5.5 6.3 5.7 6.0 6.4 5.8 5.4 5.7 6.5 6.7 6.2 6.5 6.0 5.9 7.1 6.6 6.9 6.8 5.2 5.7 5.1 5.0 6.4 6.9 6.8 6.5 6.6 5.7 5.4 5.5 4.4 4.9
5.9 6.0 5.1 3.9 4.3 5.7 5.8 5.5 4.6 5.4 4.3 3.9 5.5 6.6 5.1 5.9 5.8 5.9 5.6 6.7 7.1 7.0 6.8 6.4 6.3 6.9 6.5 6.6 6.8 6.7 5.5 5.2 5.5 6.3 8.2 6.5 7.4 6.7 5.6 3.6 3.8 3.6 3.6
5.4 6.3 5.5 4.5 5.4 6.7 6.9 6.0 5.7 5.8 6.2 6.6 6.9 4.5 5.1 5.8 6.6 6.3 5.5 6.7 6.7 7.2 6.6 6.2 6.4 6.9 6.8 6.7 7.1 6.9 6.7 5.8 5.5 5.8 5.3 4.9 5.9 7.7 6.1 5.2 4.2 4.6 5.3
4.7 5.6 6.5 6.8 5.2 6.2 5.7 5.8 5.7 5.7 5.3 6.5 6.3 6.2 6.0 5.1 5.2 5.1 5.6 5.3 5.5 5.7 6.0 6.5 6.5 6.2 5.2 6.3 8.6 7.6 7.1 5.6 5.5 5.2 5.0 5.5 5.7 5.2 5.0 5.6 6.1 6.4 5.2
5.1 6.5 7.0 5.8 5.7 4.8 4.4 5.1 5.2 5.4 6.2 6.5 5.9 6.6 5.7 5.0 2.7 1.5 3.7 5.7 6.0 6.0 6.2 5.8 7.0 3.9 4.4 2.8 3.2 4.3 6.6 6.5 5.5 5.8 5.2 5.2 5.3 6.3 7.9 5.9 6.0 5.2 6.5
5.0 5.4 5.3 5.6 4.5 4.0 4.9 5.1 4.8 5.3 5.4 5.4 5.9 5.9 6.2 5.8 1.4 1.0 1.3 4.5 4.5 4.0 4.8 4.8 5.8 7.1 4.9 7.1 2.2 2.1 2.8 3.1 4.7 6.7 6.7 7.3 7.5 7.3 7.4 6.8 5.9 6.4 8.1
3.7 4.9 4.7 4.5 4.3 4.6 4.2 4.1 3.9 3.7 4.1 4.6 5.4 5.2 4.3 4.4 2.1 0.0 0.7 3.8 5.1 4.4 4.5 5.0 5.4 6.5 6.5 6.8 7.4 7.4 6.9 6.7 5.6 6.8 6.9 6.8 7.2 7.1 7.4 7.4 7.3 6.6 6.2
4.3 4.9 5.2 5.3 5.1 5.3 6.0 6.1 6.0 5.0 5.0 4.9 5.2 6.1 5.4 5.3 2.0 1.0 2.3 5.3 4.9 4.5 4.8 5.0 4.8 5.3 3.9 0.5 5.9 7.2 7.9 7.6 4.2 1.6 2.3 2.7 2.5 2.8 5.0 7.9 8.5 6.6 4.5
5.5 5.2 5.4 5.8 5.2 5.7 5.8 6.6 6.3 5.9 6.2 6.4 6.3 5.8 4.8 5.3 2.5 0.1 1.6 5.2 4.3 4.8 4.4 4.6 1.4 4.0 2.5 -0.1 3.5 5.4 7.3 7.9 7.6 7.5 4.5 2.3 0.8 3.1 0.3 5.9 8.7 8.6 8.7
5.7 6.1 6.0 5.9 5.8 5.8 6.2 6.4 6.1 5.6 5.7 5.5 5.5 4.5 3.8 3.7 3.6 -1.4 -1.2 5.0 4.8 4.1 3.9 3.9 3.9 -0.8 -1.3 -2.1 -1.1 3.7 5.1 3.4 5.8 6.6 6.8 6.7 7.1 6.9 6.8 5.2 6.7 9.1 9.0
6.1 5.8 5.3 4.9 5.6 6.1 6.4 6.1 6.1 6.3 6.3 5.6 3.9 3.4 2.1 1.1 -0.9 -0.4 0.3 1.9 2.4 4.5 4.2 4.4 3.0 -2.5 -2.8 -2.8 -2.3 -1.0 -1.2 -1.0 3.3 4.6 4.2 5.1 4.9 6.4 8.8 7.8 6.0 6.8 8.5
6.1 5.6 5.3 5.5 5.4 5.7 6.0 6.4 7.3 7.0 7.3 5.4 4.2 4.5 4.5 4.3 2.5 -0.8 -1.0 -0.4 0.5 4.2 3.7 1.4 0.0 -0.6 -0.8 -1.1 -2.4 -2.6 -2.1 2.3 2.8 3.9 4.3 4.7 5.4 7.8 5.3 5.8 6.7 5.4 5.7
5.9 5.4 5.3 5.7 5.7 5.3 6.5 7.1 7.4 7.7 7.4 7.7 8.2 6.8 6.6 7.0 5.5 4.4 3.7 3.0 1.8 3.0 2.3 2.5 1.1 -0.1 -1.4 -0.1 0.9 2.1 2.3 2.8 3.4 4.1 4.2 5.2 5.1 5.1 5.3 4.9 4.3 3.5 3.3
6.3 6.2 6.4 7.0 6.5 6.7 5.8 6.0 7.4 6.3 5.8 8.1 7.6 7.9 8.3 7.7 5.7 0.2 2.0 5.6 5.0 0.9 1.0 3.2 3.6 3.4 4.3 4.7 4.8 4.4 4.6 4.8 4.3 4.2 4.6 4.8 5.6 5.4 4.3 4.3 4.3 4.7 4.1
7.0 6.7 6.1 6.9 7.4 7.2 7.0 6.8 -1.7 -1.7 -3.3 -3.2 -2.7 2.5 4.4 -1.5 -3.6 -3.4 -3.2 -3.3 -3.4 -3.5 4.3 5.2 4.5 4.2 4.4 4.3 4.2 4.0 3.8 3.8 4.4 4.9 5.0 5.6 5.6 5.5 5.5 5.2 5.0 5.5 4.8
6.1 5.7 6.7 6.4 7.4 7.2 7.2 7.3 8.2 2.9 -3.3 -3.3 -3.1 -3.6 -3.0 -0.6 -3.7 -3.5 -3.4 -3.0 -3.2 -2.3 6.8 6.7 6.4 7.2 6.8 5.7 5.6 5.3 5.1 5.3 4.9 5.1 5.4 5.4 5.8 6.3 5.9 5.8 5.6 5.6 5.7
6.2 2.8 7.2 7.3 7.5 7.8 7.5 7.4 8.2 7.8 8.0 7.6 -1.6 -0.8 -4.5 -4.4 -4.1 -4.0 -4.3 -3.2 6.4 4.5 6.4 7.8 8.6 7.1 5.3 4.7 4.9 5.7 5.4 5.3 6.1 5.6 6.0 6.0 6.1 6.2 6.1 6.1 6.1 5.7 5.6
7.0 7.2 7.1 7.6 7.8 6.5 8.0 8.5 8.9 8.6 8.7 8.6 8.0 1.4 -2.5 -4.3 -3.7 -3.3 -2.8 6.3 8.0 8.6 8.5 5.8 7.0 5.2 5.4 5.5 5.8 5.9 5.7 5.4 5.6 6.0 5.7 5.7 5.7 5.8 6.1 6.1 6.4 4.4 5.1
7.4 3.4 4.6 7.6 8.0 8.1 8.4 8.9 9.0 8.9 8.6 8.9 9.0 9.0 6.7 3.1 7.1 8.5 7.2 6.8 6.2 5.7 6.2 4.8 5.3 4.4 4.4 6.4 6.6 6.0 5.8 5.4 5.0 5.4 5.6 5.7 5.9 5.7 5.7 6.0 6.0 6.0 6.0
7.9 7.8 3.2 8.4 8.6 8.0 8.0 7.9 8.1 8.1 8.9 9.0 8.7 7.2 -0.1 6.5 8.7 9.0 8.3 8.2 7.2 6.8 6.0 5.1 5.2 4.2 4.1 4.5 6.2 6.4 6.2 5.3 5.9 6.7 5.3 4.9 5.1 5.3 5.5 5.8 6.0 6.1 5.9
7.7 8.1 8.2 8.9 8.5 8.7 8.7 8.4 8.4 8.4 8.3 8.7 9.1 8.3 -2.5 5.0 7.2 7.8 7.8 7.5 7.3 6.7 6.6 5.9 4.9 4.8 4.9 6.2 6.8 5.9 5.5 5.0 5.3 4.9 5.2 6.0 6.2 6.2 5.4 5.0 5.3 5.9 6.7
8.4 8.6 9.0 9.1 8.6 7.2 9.0 9.3 9.2 9.0 8.8 8.1 8.7 9.1 8.3 6.7 7.0 7.3 7.4 7.5 7.1 6.8 6.9 5.6 5.0 4.8 6.9 7.7 8.4 7.9 7.6 6.6 5.5 4.8 5.2 5.7 5.7 6.6 6.8 6.0 5.6 5.1 4.7
8.4 8.3 8.6 9.0 9.1 8.5 9.2 9.0 9.1 7.3 7.8 8.2 8.4 9.1 9.2 9.1 9.2 8.9 7.6 7.7 7.2 6.9 6.8 6.8 6.0 6.0 7.7 8.2 7.8 7.4 7.9 6.6 5.0 5.7 5.8 6.1 8.4 7.2 5.8 5.5 5.8 6.1 5.6
8.1 7.8 8.0 8.1 8.4 9.0 9.0 9.1 9.1 9.2 9.1 8.7 7.4 7.4 9.1 9.4 9.3 8.8 8.8 7.3 7.1 7.2 7.3 7.5 8.0 5.9 6.8 7.4 6.1 6.8 6.4 0.9 1.5 1.6 5.8 7.1 8.0 8.3 7.4 5.0 5.1 5.3 6.5
9.1 8.6 9.1 9.2 9.2 9.2 9.2 9.1 9.1 9.2 9.2 8.7 7.9 7.5 7.9 8.4 9.0 9.4 9.5 9.5 9.2 9.6 8.9 8.5 7.7 7.2 7.1 8.3 7.9 5.6 1.9 -1.2 0.3 -1.9 3.9 7.0 8.2 9.0 7.8 6.7 5.7 5.5 5.5
Wind_Speed
11 10 11 11 12 12 10 14 15 16 16 16 17 16 17 17 16 15 13 13 13 14 13 13 14 13 8 9 9 7 8 7 7 8 7 7 8 7 6 8 3 4 5
12 13 13 14 14 14 15 16 14 14 14 16 16 18 17 17 16 16 15 14 14 16 15 14 14 10 12 10 8 9 9 7 6 10 7 6 7 4 3 4 1 2 2
8 14 13 14 15 15 12 12 14 16 17 16 16 17 16 16 16 16 15 15 14 16 16 15 14 13 12 9 10 9 8 6 7 7 7 5 5 4 2 1 2 2 3
8 13 13 12 11 11 8 8 10 11 13 15 16 16 14 13 14 13 13 12 12 14 14 15 14 14 14 12 11 12 9 7 8 7 5 4 6 5 4 4 4 4 4
8 14 12 8 6 5 6 8 10 8 6 10 9 8 9 9 8 12 12 11 13 13 12 14 13 13 13 12 9 11 10 8 7 6 5 5 6 4 6 4 6 5 5
9 12 10 8 7 4 2 5 8 9 9 10 10 10 8 5 5 6 5 11 12 13 12 12 12 13 13 13 13 9 10 11 10 7 6 7 10 7 7 6 6 4 3
5 1 6 6 9 4 7 7 5 4 4 6 7 8 9 9 10 9 5 2 7 7 6 8 8 9 13 12 13 11 11 14 13 10 10 11 10 10 9 7 7 7 7
9 6 3 3 5 4 4 6 6 5 5 5 6 4 2 1 5 7 9 10 9 8 6 7 7 9 11 11 11 11 13 14 15 12 14 13 12 9 9 8 7 7 6
6 3 3 1 4 3 5 6 5 4 5 5 6 8 7 7 11 10 11 9 7 7 6 4 4 7 3 6 7 12 13 12 10 15 14 9 8 6 7 6 7 6 5
5 6 6 5 3 2 6 6 4 4 4 4 6 6 7 8 11 15 13 6 4 3 4 7 13 6 3 5 3 8 10 12 10 10 10 13 11 10 12 12 9 9 8
4 6 6 6 6 5 2 1 2 0 2 5 5 4 5 2 4 7 10 7 7 5 3 4 5 8 7 7 10 4 9 5 6 7 7 7 9 9 9 11 13 12 11
4 6 7 8 6 5 5 5 5 4 5 6 5 6 6 7 11 7 5 2 2 5 5 4 4 4 5 7 8 9 8 5 4 5 4 7 7 7 9 10 14 13 14
5 6 6 6 5 5 6 6 6 5 6 6 4 5 5 6 6 9 10 8 10 3 3 3 2 3 2 3 7 8 6 3 3 5 6 9 8 9 9 7 12 14 16
7 6 5 5 4 4 3 3 5 5 5 5 4 4 4 4 4 4 3 3 5 3 1 2 4 3 4 4 4 3 3 5 6 9 9 9 6 5 7 7 7 8 7
8 6 5 3 3 3 4 2 3 4 4 5 5 4 4 3 4 4 4 3 3 3 2 1 2 2 2 2 3 3 5 6 7 7 9 9 9 8 8 7 8 8 9
7 6 5 5 4 4 4 4 8 8 8 9 8 3 4 7 8 5 3 3 1 2 1 2 1 1 2 3 3 4 4 6 6 6 7 8 8 7 7 7 8 9 9
5 6 4 5 6 6 7 5 3 4 8 6 6 7 6 7 6 5 4 2 2 4 2 1 2 2 2 2 3 4 5 5 7 6 6 7 8 8 8 9 8 9 10
4 3 4 4 5 5 5 5 5 4 3 1 4 2 7 6 6 5 5 5 4 5 2 4 4 4 5 4 5 6 6 6 6 6 7 7 8 8 8 8 8 10 10
3 4 4 4 4 4 4 4 4 4 4 4 1 4 7 7 7 6 6 5 5 5 3 4 3 4 4 5 5 5 5 5 7 7 7 7 7 7 8 9 9 12 12
3 3 3 3 4 4 5 5 5 4 3 4 4 3 2 4 5 5 5 5 5 5 5 5 5 3 4 6 5 4 4 5 5 5 6 7 7 8 9 9 10 11 10
2 2 2 3 5 5 5 5 5 6 6 5 5 3 3 4 5 5 6 5 5 5 5 5 6 4 4 5 6 5 5 5 6 7 6 6 6 8 8 9 10 11 11
3 3 3 4 5 5 6 6 6 6 5 7 6 5 5 5 6 7 6 6 6 6 5 6 6 6 6 6 5 5 5 5 6 6 7 8 8 7 7 7 9 10 12
3 3 4 5 6 6 7 8 7 7 7 8 8 8 7 7 7 8 8 7 6 6 6 7 7 7 8 7 7 6 6 5 5 6 7 7 5 6 8 8 8 9 9
4 5 5 6 5 7 7 8 8 8 8 9 9 9 10 9 9 10 9 7 7 8 8 7 8 10 10 9 7 7 7 6 5 7 8 8 8 8 6 6 7 9 9
4 5 5 5 6 6 7 7 8 8 8 8 8 8 9 9 9 10 9 8 9 9 10 9 9 11 14 14 11 11 11 5 9 8 7 9 9 9 7 4 5 6 10
5 5 5 5 5 6 7 7 8 8 8 8 8 7 8 8 8 8 8 9 10 10 11 9 10 14 15 13 14 13 8 8 7 7 5 8 8 7 6 6 6 5 7
Wind_Direction
232 235 222 215 218 211 219 219 222 208 200 209 216 214 220 213 204 211 224 224 221 235 225 235 236 234 220 227 233 222 223 230 251 269 256 262 275 271 281 278 237 237 255
249 233 229 242 229 225 210 201 204 222 222 214 214 214 211 218 207 203 214 227 224 230 231 229 231 230 230 226 217 218 222 215 222 253 252 256 256 259 280 299 259 174 190
243 257 250 232 221 218 216 208 211 208 204 208 211 224 207 212 208 200 203 213 222 227 224 219 222 220 223 216 223 216 216 209 221 240 259 258 267 254 216 202 222 234 207
244 236 235 235 217 193 209 239 241 237 237 232 228 215 212 216 214 203 205 202 222 227 226 218 215 209 219 214 219 220 218 213 217 229 238 243 252 250 252 237 230 222 223
232 227 227 215 197 197 178 212 228 223 238 231 223 221 210 184 210 205 199 192 214 224 220 221 211 207 212 213 215 216 213 216 217 221 233 243 250 228 232 231 249 239 238
198 211 222 258 263 251 304 240 219 203 201 222 212 205 189 181 163 216 194 195 217 228 214 214 217 194 213 205 211 226 209 210 218 217 221 229 244 239 236 223 229 219 250
78 158 237 267 298 360 282 263 258 238 210 200 214 203 202 205 177 161 151 198 234 219 225 210 205 214 214 212 209 224 219 218 225 217 230 229 241 231 235 223 225 235 245
58 27 15 305 285 287 296 306 291 313 298 266 251 257 220 117 211 202 187 203 231 222 207 230 215 228 209 214 222 222 224 225 227 229 235 242 236 240 227 227 230 234 251
67 72 68 354 282 294 278 272 265 230 217 235 258 241 215 218 214 220 196 207 211 200 167 155 223 246 284 228 249 255 244 238 213 219 241 249 251 238 237 231 224 213 216
53 54 60 59 30 148 208 228 241 252 250 238 234 225 211 222 216 215 204 199 194 211 176 184 211 214 223 196 234 282 257 257 245 231 229 248 246 236 204 229 237 231 230
30 62 56 69 78 65 130 213 181 175 52 64 69 42 31 302 237 197 193 192 176 169 195 218 226 171 200 185 200 246 272 338 305 263 253 242 232 222 222 222 232 235 239
52 54 48 44 43 53 78 66 51 37 53 64 58 53 51 44 36 57 58 96 194 156 171 182 187 51 110 146 169 201 237 278 274 269 252 261 252 248 248 234 230 236 242
47 52 57 70 55 37 55 71 93 87 86 94 78 66 68 75 74 65 69 45 27 25 24 28 341 332 328 213 202 193 191 223 231 247 250 258 246 249 239 249 241 238 242
29 38 52 67 58 49 68 84 88 85 85 90 100 108 102 110 114 111 112 104 96 101 264 278 323 324 279 284 308 260 217 216 224 234 240 251 258 220 232 229 226 229 228
10 11 33 55 62 86 74 49 95 85 56 92 91 96 105 108 92 61 31 53 37 45 289 83 31 27 324 305 290 277 273 260 234 236 245 245 242 232 227 218 225 225 222
351 4 9 0 16 25 36 77 49 52 41 29 21 28 101 70 130 130 90 68 24 264 223 39 54 351 306 308 298 288 283 274 268 273 262 258 253 239 239 226 219 222 217
356 0 18 18 24 22 28 27 45 111 104 94 69 50 356 152 166 151 168 168 314 292 298 314 308 309 315 303 297 295 294 289 278 271 268 269 260 260 240 241 226 217 225
10 56 32 23 23 25 30 33 35 25 342 305 131 140 119 141 177 177 206 209 221 224 318 307 307 336 341 324 314 307 302 295 277 269 268 261 256 258 259 243 238 237 234
26 25 10 11 26 20 33 39 33 35 19 16 75 169 155 181 205 218 222 267 303 303 303 289 305 295 299 305 303 305 303 301 301 293 274 272 268 256 250 250 256 250 237
32 38 349 2 11 9 9 356 348 350 335 349 343 340 155 190 227 234 228 242 263 267 271 267 275 286 294 295 312 318 312 309 311 315 320 312 293 270 261 259 248 245 243
333 3 12 4 11 359 342 335 332 328 310 315 312 330 341 284 293 281 274 270 271 271 263 255 265 257 271 287 295 309 305 322 323 329 327 319 318 310 302 274 261 251 245
292 309 333 332 333 332 334 314 302 300 305 290 283 266 179 248 268 273 270 267 261 256 258 251 257 261 259 257 277 278 283 302 311 319 314 316 319 320 318 315 307 275 262
288 304 314 317 324 327 323 329 313 298 291 291 287 273 231 243 245 252 258 260 259 261 255 253 251 247 247 247 251 262 281 290 295 300 313 307 312 323 325 315 315 314 306
318 316 313 313 315 315 314 322 315 301 284 293 291 283 266 258 258 252 251 253 252 251 251 249 246 246 250 248 261 263 261 260 278 290 306 297 310 325 335 332 331 331 318
349 336 327 331 328 329 325 322 322 321 318 321 317 310 300 296 287 283 274 260 248 246 246 243 245 245 248 249 245 252 261 227 251 287 281 295 300 309 312 300 318 325 337
360 358 350 343 340 334 329 324 325 327 334 339 338 338 330 320 312 306 303 293 275 265 256 250 246 245 240 241 240 243 222 228 250 234 266 283 291 307 337 309 329 327 318